Shirley, NY

5:12 PM EDT on May 28, 2017 (GMT -0400)
Brookhaven

Weather History for KHWV - April, 2013

Change the Weather History Date:

Wednesday, April 17, 2013

  Actual Average (KISP) Record (KISP)
Temperature  
Mean Temperature 58 °F -  
Max Temperature 68 °F 57 °F 94 °F (2002)
Min Temperature 48 °F 39 °F 30 °F (2005)
Degree Days  
Heating Degree Days 7    
Growing Degree Days 8 (Base 50)    
Moisture  
Dew Point 42 °F    
Average Humidity 64    
Maximum Humidity 90    
Minimum Humidity 24    
Precipitation  
Precipitation 0.02 in - - ()
Sea Level Pressure  
Sea Level Pressure 30.20 in    
Wind  
Wind Speed 8 mph (NW)    
Max Wind Speed 14 mph    
Max Gust Speed 20 mph    
Visibility 10 miles    
Events      
Averages and records for this station are not official NWS values.
T = Trace of Precipitation, MM = Missing Value Source: NWS Daily Summary

Daily Weather History Graph

Daily Weather History Graph

Search for Another Location

Airport or City:

Trip Planner

Search our weather history database for the weather conditions in past years. The results will help you decide how hot, cold, wet, or windy it might be!

Date:

Astronomy

Apr. 17, 2013 Rise Set
Actual Time 6:09 AM EDT 7:33 PM EDT
Civil Twilight 5:40 AM EDT 8:02 PM EDT
Nautical Twilight 5:06 AM EDT 8:36 PM EDT
Astronomical Twilight 4:30 AM EDT 9:12 PM EDT
Moon 11:19 AM EDT (4/17) 1:10 AM EDT (4/17)
Length of Visible Light 14h 21m
Length of Day
13h 24m
Waxing Crescent, 42% of the Moon is Illuminated
Apr 17
Waxing Crescent
Apr 18
First Quarter
Apr 25
Full
May 2
Last Quarter
May 9
New

Hourly Weather History & Observations

Time (EDT) Temp. Dew Point Humidity Pressure Visibility Wind Dir Wind Speed Gust Speed Precip Events Conditions
12:13 AM 53.6 °F 48.2 °F 82% 30.17 in 10.0 mi SW 10.4 mph 19.6 mph N/A   Overcast
12:56 AM 53.1 °F 48.9 °F 86% 30.17 in 10.0 mi SSW 9.2 mph - N/A   Overcast
1:56 AM 53.1 °F 48.9 °F 86% 30.15 in 10.0 mi SSW 8.1 mph - N/A   Overcast
2:56 AM 54.0 °F 50.0 °F 86% 30.14 in 10.0 mi SW 9.2 mph - N/A   Overcast
3:56 AM 54.0 °F 51.1 °F 90% 30.14 in 10.0 mi SSW 6.9 mph - 0.00 in   Overcast
4:56 AM 54.0 °F 51.1 °F 90% 30.13 in 10.0 mi WSW 5.8 mph - N/A   Overcast
5:56 AM 54.0 °F 51.1 °F 90% 30.14 in 10.0 mi North 5.8 mph - N/A   Overcast
6:36 AM 55.4 °F 51.8 °F 88% 30.14 in 10.0 mi Variable 4.6 mph - N/A   Overcast
6:56 AM 54.0 °F 50.0 °F 86% 30.15 in 10.0 mi North 5.8 mph - N/A   Overcast
7:05 AM 53.6 °F 50.0 °F 88% 30.16 in 10.0 mi NNE 4.6 mph - N/A   Overcast
7:56 AM 51.1 °F 45.0 °F 80% 30.19 in 10.0 mi North 5.8 mph - 0.02 in   Overcast
8:56 AM 53.1 °F 44.1 °F 71% 30.21 in 10.0 mi NNW 5.8 mph - N/A   Overcast
9:37 AM 55.4 °F 41.0 °F 58% 30.22 in 10.0 mi NNW 8.1 mph 17.3 mph N/A   Overcast
9:56 AM 55.0 °F 39.9 °F 57% 30.22 in 10.0 mi North 9.2 mph - N/A   Overcast
10:56 AM 60.1 °F 35.1 °F 39% 30.22 in 10.0 mi North 12.7 mph - N/A   Mostly Cloudy
11:56 AM 63.0 °F 35.1 °F 35% 30.21 in 10.0 mi North 12.7 mph - N/A   Clear
1:56 PM 66.0 °F 33.1 °F 29% 30.20 in 10.0 mi North 9.2 mph - N/A   Clear
2:56 PM 66.0 °F 30.9 °F 27% 30.21 in 10.0 mi NNW 13.8 mph 18.4 mph N/A   Clear
3:56 PM 66.9 °F 32.0 °F 27% 30.21 in 10.0 mi NNW 10.4 mph - N/A   Clear
4:56 PM 68.0 °F 30.0 °F 24% 30.20 in 10.0 mi NNW 5.8 mph - N/A   Clear
5:56 PM 66.9 °F 30.9 °F 26% 30.22 in 10.0 mi WNW 8.1 mph - N/A   Clear
6:56 PM 64.9 °F 30.0 °F 27% 30.23 in 10.0 mi NW 8.1 mph - N/A   Clear
7:56 PM 55.0 °F 43.0 °F 64% 30.26 in 10.0 mi South 4.6 mph - N/A   Clear
8:56 PM 51.1 °F 41.0 °F 68% 30.27 in 10.0 mi SSE 3.5 mph - N/A   Clear
9:56 PM 50.0 °F 39.9 °F 68% 30.30 in 10.0 mi Calm Calm - N/A   Clear
10:56 PM 48.9 °F 42.1 °F 77% 30.30 in 10.0 mi SE 4.6 mph - N/A   Clear
11:56 PM 48.0 °F 41.0 °F 77% 30.31 in 10.0 mi SSE 3.5 mph - N/A   Clear